Year,Month,Day,Hour,Minute,Value (Times are PST for temperature in C)
2013,09,26,00,00,7.80
2013,09,26,00,01,7.80
2013,09,26,00,02,7.80
2013,09,26,00,03,7.80
2013,09,26,00,04,7.70
2013,09,26,00,05,7.70
2013,09,26,00,06,7.70
2013,09,26,00,07,7.70
2013,09,26,00,08,7.70
2013,09,26,00,09,7.70
2013,09,26,00,10,7.70
2013,09,26,00,11,7.70
2013,09,26,00,12,7.70
2013,09,26,00,17,7.60
2013,09,26,00,18,7.60
2013,09,26,00,19,7.60
2013,09,26,00,20,7.60
2013,09,26,00,21,7.60
2013,09,26,00,22,7.60
2013,09,26,00,23,7.60
2013,09,26,00,24,7.60
2013,09,26,00,25,7.60
2013,09,26,00,26,7.60
2013,09,26,00,27,7.60
2013,09,26,00,28,7.60
2013,09,26,00,29,7.60
2013,09,26,00,30,7.60
2013,09,26,00,31,7.60
2013,09,26,00,32,7.60
2013,09,26,00,33,7.60
2013,09,26,00,34,7.60
2013,09,26,00,35,7.60
2013,09,26,00,36,7.60
2013,09,26,00,37,7.60
2013,09,26,00,38,7.60
2013,09,26,00,39,7.60
2013,09,26,00,40,7.60
2013,09,26,00,41,7.60
2013,09,26,00,42,7.60
2013,09,26,00,43,7.60
2013,09,26,00,44,7.60
2013,09,26,00,45,7.60
2013,09,26,00,46,7.60
2013,09,26,00,47,7.60
2013,09,26,00,48,7.60
2013,09,26,00,49,7.60
2013,09,26,00,50,7.60
2013,09,26,00,51,7.60
2013,09,26,00,52,7.60
2013,09,26,00,53,7.50
2013,09,26,00,54,7.50
2013,09,26,00,55,7.50
2013,09,26,00,56,7.50
2013,09,26,00,57,7.50
2013,09,26,00,58,7.50
2013,09,26,00,59,7.50
2013,09,26,01,00,7.50
2013,09,26,01,01,7.50
2013,09,26,01,02,7.50
2013,09,26,01,03,7.50
2013,09,26,01,04,7.40
2013,09,26,01,05,7.40
2013,09,26,01,06,7.40
2013,09,26,01,07,7.40
2013,09,26,01,08,7.40
2013,09,26,01,09,7.40
2013,09,26,01,10,7.40
2013,09,26,01,11,7.40
2013,09,26,01,12,7.40
2013,09,26,01,13,7.40
2013,09,26,01,14,7.40
2013,09,26,01,15,7.40
2013,09,26,01,16,7.40
2013,09,26,01,17,7.40
2013,09,26,01,18,7.40
2013,09,26,01,19,7.40
2013,09,26,01,20,7.40
2013,09,26,01,21,7.40
2013,09,26,01,22,7.30
2013,09,26,01,23,7.30
2013,09,26,01,24,7.30
2013,09,26,01,25,7.30
2013,09,26,01,26,7.30
2013,09,26,01,27,7.30
2013,09,26,01,28,7.30
2013,09,26,01,29,7.30
2013,09,26,01,30,7.30
2013,09,26,01,31,7.30
2013,09,26,01,32,7.20
2013,09,26,01,33,7.20
2013,09,26,01,34,7.20
2013,09,26,01,35,7.20
2013,09,26,01,36,7.20
2013,09,26,01,37,7.20
2013,09,26,01,38,7.20
2013,09,26,01,39,7.20
2013,09,26,01,40,7.20
2013,09,26,01,41,7.20
2013,09,26,01,42,7.20
2013,09,26,01,43,7.20
2013,09,26,01,44,7.20
2013,09,26,01,45,7.20
2013,09,26,01,46,7.10
2013,09,26,01,47,7.10
2013,09,26,01,48,7.10
2013,09,26,01,49,7.00
2013,09,26,01,50,7.00
2013,09,26,01,51,7.00
2013,09,26,01,52,7.00
2013,09,26,01,53,7.00
2013,09,26,01,54,7.00
2013,09,26,01,55,7.00
2013,09,26,01,56,7.00
2013,09,26,01,57,6.90
2013,09,26,01,58,6.90
2013,09,26,01,59,6.90
2013,09,26,02,00,6.90
2013,09,26,02,01,6.90
2013,09,26,02,02,6.90
2013,09,26,02,03,6.90
2013,09,26,02,04,6.80
2013,09,26,02,05,6.80
2013,09,26,02,06,6.80
2013,09,26,02,07,6.80
2013,09,26,02,08,6.80
2013,09,26,02,09,6.80
2013,09,26,02,10,6.80
2013,09,26,02,11,6.80
2013,09,26,02,12,6.80
2013,09,26,02,13,6.80
2013,09,26,02,14,6.80
2013,09,26,02,15,6.80
2013,09,26,02,16,6.70
2013,09,26,02,17,6.70
2013,09,26,02,18,6.70
2013,09,26,02,19,6.70
2013,09,26,02,20,6.70
2013,09,26,02,21,6.70
2013,09,26,02,22,6.70
2013,09,26,02,23,6.70
2013,09,26,02,24,6.70
2013,09,26,02,25,6.70
2013,09,26,02,26,6.70
2013,09,26,02,27,6.70
2013,09,26,02,28,6.70
2013,09,26,02,29,6.70
2013,09,26,02,30,6.70
2013,09,26,02,31,6.70
2013,09,26,02,32,6.70
2013,09,26,02,33,6.70
2013,09,26,02,34,6.60
2013,09,26,02,35,6.60
2013,09,26,02,36,6.60
2013,09,26,02,37,6.60
2013,09,26,02,38,6.60
2013,09,26,02,39,6.50
2013,09,26,02,40,6.50
2013,09,26,02,41,6.50
2013,09,26,02,42,6.50
2013,09,26,02,43,6.40
2013,09,26,02,44,6.40
2013,09,26,02,45,6.40
2013,09,26,02,46,6.40
2013,09,26,02,47,6.40
2013,09,26,02,48,6.30
2013,09,26,02,49,6.30
2013,09,26,02,50,6.30
2013,09,26,02,51,6.30
2013,09,26,02,52,6.30
2013,09,26,02,53,6.30
2013,09,26,02,54,6.40
2013,09,26,02,55,6.40
2013,09,26,02,56,6.40
2013,09,26,02,57,6.40
2013,09,26,02,58,6.40
2013,09,26,02,59,6.40
2013,09,26,03,00,6.40
2013,09,26,03,01,6.30
2013,09,26,03,02,6.30
2013,09,26,03,03,6.30
2013,09,26,03,04,6.30
2013,09,26,03,05,6.30
2013,09,26,03,06,6.30
2013,09,26,03,07,6.30
2013,09,26,03,08,6.20
2013,09,26,03,09,6.20
2013,09,26,03,10,6.20
2013,09,26,03,11,6.20
2013,09,26,03,12,6.20
2013,09,26,03,13,6.20
2013,09,26,03,14,6.20
2013,09,26,03,15,6.20
2013,09,26,03,16,6.10
2013,09,26,03,17,6.20
2013,09,26,03,18,6.20
2013,09,26,03,19,6.20
2013,09,26,03,20,6.20
2013,09,26,03,21,6.20
2013,09,26,03,22,6.20
2013,09,26,03,23,6.20
2013,09,26,03,24,6.20
2013,09,26,03,25,6.20
2013,09,26,03,26,6.20
2013,09,26,03,27,6.20
2013,09,26,03,28,6.20
2013,09,26,03,29,6.20
2013,09,26,03,30,6.20
2013,09,26,03,31,6.10
2013,09,26,03,32,6.10
2013,09,26,03,33,6.10
2013,09,26,03,34,6.10
2013,09,26,03,35,6.10
2013,09,26,03,36,6.00
2013,09,26,03,37,6.00
2013,09,26,03,38,6.00
2013,09,26,03,39,6.00
2013,09,26,03,40,6.00
2013,09,26,03,41,6.00
2013,09,26,03,42,6.00
2013,09,26,03,43,5.90
2013,09,26,03,44,5.90
2013,09,26,03,45,5.90
2013,09,26,03,46,5.90
2013,09,26,03,47,5.90
2013,09,26,03,48,5.90
2013,09,26,03,49,5.90
2013,09,26,03,50,5.90
2013,09,26,03,51,5.90
2013,09,26,03,52,5.90
2013,09,26,03,53,5.90
2013,09,26,03,54,5.80
2013,09,26,03,55,5.80
2013,09,26,03,56,5.80
2013,09,26,03,57,5.80
2013,09,26,03,58,5.80
2013,09,26,03,59,5.80
2013,09,26,04,00,5.80
2013,09,26,04,01,5.80
2013,09,26,04,02,5.80
2013,09,26,04,03,5.80
2013,09,26,04,04,5.80
2013,09,26,04,05,5.80
2013,09,26,04,06,5.80
2013,09,26,04,07,5.80
2013,09,26,04,08,5.80
2013,09,26,04,09,5.80
2013,09,26,04,10,5.80
2013,09,26,04,11,5.80
2013,09,26,04,12,5.80
2013,09,26,04,13,5.80
2013,09,26,04,14,5.80
2013,09,26,04,15,5.80
2013,09,26,04,16,5.80
2013,09,26,04,17,5.80
2013,09,26,04,18,5.80
2013,09,26,04,19,5.80
2013,09,26,04,20,5.80
2013,09,26,04,21,5.80
2013,09,26,04,22,5.80
2013,09,26,04,23,5.80
2013,09,26,04,24,5.80
2013,09,26,04,25,5.80
2013,09,26,04,26,5.80
2013,09,26,04,27,5.80
2013,09,26,04,28,5.80
2013,09,26,04,29,5.70
2013,09,26,04,30,5.70
2013,09,26,04,31,5.70
2013,09,26,04,32,5.70
2013,09,26,04,33,5.70
2013,09,26,04,34,5.70
2013,09,26,04,35,5.70
2013,09,26,04,36,5.70
2013,09,26,04,37,5.70
2013,09,26,04,38,5.70
2013,09,26,04,39,5.70
2013,09,26,04,40,5.70
2013,09,26,04,41,5.70
2013,09,26,04,42,5.70
2013,09,26,04,43,5.70
2013,09,26,04,44,5.70
2013,09,26,04,45,5.70
2013,09,26,04,46,5.70
2013,09,26,04,47,5.70
2013,09,26,04,48,5.70
2013,09,26,04,49,5.60
2013,09,26,04,50,5.60
2013,09,26,04,51,5.60
2013,09,26,04,52,5.60
2013,09,26,04,53,5.60
2013,09,26,04,54,5.60
2013,09,26,04,55,5.60
2013,09,26,04,56,5.60
2013,09,26,04,57,5.60
2013,09,26,04,58,5.60
2013,09,26,04,59,5.60
2013,09,26,05,00,5.60
2013,09,26,05,01,5.60
2013,09,26,05,02,5.60
2013,09,26,05,03,5.60
2013,09,26,05,04,5.60
2013,09,26,05,05,5.60
2013,09,26,05,06,5.60
2013,09,26,05,07,5.50
2013,09,26,05,08,5.60
2013,09,26,05,09,5.50
2013,09,26,05,10,5.50
2013,09,26,05,11,5.50
2013,09,26,05,12,5.50
2013,09,26,05,13,5.50
2013,09,26,05,14,5.50
2013,09,26,05,15,5.50
2013,09,26,05,16,5.50
2013,09,26,05,17,5.50
2013,09,26,05,18,5.50
2013,09,26,05,19,5.50
2013,09,26,05,20,5.50
2013,09,26,05,21,5.50
2013,09,26,05,22,5.40
2013,09,26,05,23,5.40
2013,09,26,05,24,5.40
2013,09,26,05,25,5.40
2013,09,26,05,26,5.40
2013,09,26,05,27,5.40
2013,09,26,05,28,5.40
2013,09,26,05,29,5.40
2013,09,26,05,30,5.40
2013,09,26,05,31,5.30
2013,09,26,05,32,5.40
2013,09,26,05,33,5.30
2013,09,26,05,34,5.30
2013,09,26,05,35,5.30
2013,09,26,05,36,5.30
2013,09,26,05,37,5.30
2013,09,26,05,38,5.30
2013,09,26,05,39,5.30
2013,09,26,05,40,5.30
2013,09,26,05,41,5.30
2013,09,26,05,42,5.30
2013,09,26,05,43,5.30
2013,09,26,05,44,5.30
2013,09,26,05,45,5.20
2013,09,26,05,46,5.20
2013,09,26,05,47,5.20
2013,09,26,05,48,5.20
2013,09,26,05,49,5.20
2013,09,26,05,50,5.20
2013,09,26,05,51,5.20
2013,09,26,05,52,5.20
2013,09,26,05,53,5.20
2013,09,26,05,54,5.20
2013,09,26,05,55,5.20
2013,09,26,05,56,5.20
2013,09,26,05,57,5.20
2013,09,26,05,58,5.20
2013,09,26,05,59,5.20
2013,09,26,06,00,5.20
2013,09,26,06,01,5.20
2013,09,26,06,02,5.20
2013,09,26,06,03,5.20
2013,09,26,06,04,5.20
2013,09,26,06,05,5.20
2013,09,26,06,06,5.10
2013,09,26,06,07,5.10
2013,09,26,06,08,5.10
2013,09,26,06,09,5.10
2013,09,26,06,10,5.10
2013,09,26,06,11,5.10
2013,09,26,06,12,5.10
2013,09,26,06,13,5.10
2013,09,26,06,14,5.10
2013,09,26,06,15,5.00
2013,09,26,06,16,5.00
2013,09,26,06,17,5.00
2013,09,26,06,18,5.00
2013,09,26,06,19,5.00
2013,09,26,06,20,5.00
2013,09,26,06,21,4.90
2013,09,26,06,22,4.90
2013,09,26,06,23,4.90
2013,09,26,06,24,4.90
2013,09,26,06,25,4.90
2013,09,26,06,26,4.90
2013,09,26,06,27,4.90
2013,09,26,06,28,4.90
2013,09,26,06,29,4.90
2013,09,26,06,30,4.90
2013,09,26,06,31,4.90
2013,09,26,06,32,4.90
2013,09,26,06,33,4.90
2013,09,26,06,34,4.90
2013,09,26,06,35,4.90
2013,09,26,06,36,4.90
2013,09,26,06,37,4.90
2013,09,26,06,38,4.90
2013,09,26,06,39,4.90
2013,09,26,06,40,4.90
2013,09,26,06,41,4.90
2013,09,26,06,42,4.90
2013,09,26,06,43,4.90
2013,09,26,06,44,4.80
2013,09,26,06,45,4.80
2013,09,26,06,46,4.80
2013,09,26,06,47,4.80
2013,09,26,06,48,4.80
2013,09,26,06,49,4.80
2013,09,26,06,50,4.80
2013,09,26,06,51,4.80
2013,09,26,06,52,4.80
2013,09,26,06,53,4.80
2013,09,26,06,54,4.80
2013,09,26,06,55,4.80
2013,09,26,06,56,4.80
2013,09,26,06,57,4.80
2013,09,26,06,58,4.80
2013,09,26,06,59,4.80
2013,09,26,07,00,4.80
2013,09,26,07,01,4.80
2013,09,26,07,02,4.80
2013,09,26,07,03,4.80
2013,09,26,07,04,4.80
2013,09,26,07,05,4.80
2013,09,26,07,06,4.80
2013,09,26,07,07,4.80
2013,09,26,07,08,4.80
2013,09,26,07,09,4.80
2013,09,26,07,10,4.80
2013,09,26,07,11,4.80
2013,09,26,07,12,4.80
2013,09,26,07,13,4.80
2013,09,26,07,14,4.70
2013,09,26,07,15,4.70
2013,09,26,07,16,4.70
2013,09,26,07,17,4.70
2013,09,26,07,18,4.70
2013,09,26,07,19,4.70
2013,09,26,07,20,4.70
2013,09,26,07,21,4.70
2013,09,26,07,22,4.70
2013,09,26,07,23,4.70
2013,09,26,07,24,4.70
2013,09,26,07,25,4.70
2013,09,26,07,26,4.70
2013,09,26,07,27,4.70
2013,09,26,07,28,4.70
2013,09,26,07,29,4.70
2013,09,26,07,30,4.70
2013,09,26,07,31,4.70
2013,09,26,07,32,4.70
2013,09,26,07,33,4.70
2013,09,26,07,34,4.60
2013,09,26,07,35,4.60
2013,09,26,07,36,4.60
2013,09,26,07,37,4.60
2013,09,26,07,38,4.60
2013,09,26,07,39,4.60
2013,09,26,07,40,4.60
2013,09,26,07,41,4.60
2013,09,26,07,42,4.60
2013,09,26,07,43,4.60
2013,09,26,07,44,4.60
2013,09,26,07,45,4.60
2013,09,26,07,46,4.60
2013,09,26,07,47,4.60
2013,09,26,07,48,4.60
2013,09,26,07,49,4.60
2013,09,26,07,50,4.60
2013,09,26,07,51,4.60
2013,09,26,07,52,4.60
2013,09,26,07,53,4.60
2013,09,26,07,54,4.60
2013,09,26,07,55,4.60
2013,09,26,07,56,4.60
2013,09,26,07,57,4.60
2013,09,26,07,58,4.60
2013,09,26,07,59,4.60
2013,09,26,08,00,4.60
2013,09,26,08,01,4.60
2013,09,26,08,02,4.60
2013,09,26,08,03,4.60
2013,09,26,08,04,4.60
2013,09,26,08,05,4.70
2013,09,26,08,06,4.70
2013,09,26,08,07,4.70
2013,09,26,08,08,4.70
2013,09,26,08,09,4.70
2013,09,26,08,10,4.80
2013,09,26,08,11,4.80
2013,09,26,08,12,4.80
2013,09,26,08,13,4.80
2013,09,26,08,14,4.80
2013,09,26,08,15,4.90
2013,09,26,08,16,4.90
2013,09,26,08,17,4.90
2013,09,26,08,18,4.90
2013,09,26,08,19,4.90
2013,09,26,08,20,4.90
2013,09,26,08,21,4.90
2013,09,26,08,22,4.90
2013,09,26,08,23,4.90
2013,09,26,08,24,4.90
2013,09,26,08,25,4.90
2013,09,26,08,26,4.90
2013,09,26,08,27,4.90
2013,09,26,08,28,4.90
2013,09,26,08,29,4.90
2013,09,26,08,30,4.90
2013,09,26,08,31,5.00
2013,09,26,08,32,5.00
2013,09,26,08,33,5.00
2013,09,26,08,34,5.00
2013,09,26,08,35,5.10
2013,09,26,08,36,5.10
2013,09,26,08,37,5.10
2013,09,26,08,38,5.20
2013,09,26,08,39,5.20
2013,09,26,08,40,5.20
2013,09,26,08,41,5.30
2013,09,26,08,42,5.30
2013,09,26,08,43,5.40
2013,09,26,08,44,5.40
2013,09,26,08,45,5.40
2013,09,26,08,46,5.50
2013,09,26,08,47,5.50
2013,09,26,08,48,5.50
2013,09,26,08,49,5.60
2013,09,26,08,50,5.60
2013,09,26,08,51,5.60
2013,09,26,08,52,5.70
2013,09,26,08,53,5.70
2013,09,26,08,54,5.80
2013,09,26,08,55,5.80
2013,09,26,08,56,5.90
2013,09,26,08,57,5.90
2013,09,26,08,58,6.00
2013,09,26,08,59,6.10
2013,09,26,09,00,6.10
2013,09,26,09,01,6.10
2013,09,26,09,02,6.20
2013,09,26,09,03,6.20
2013,09,26,09,04,6.30
2013,09,26,09,05,6.30
2013,09,26,09,06,6.40
2013,09,26,09,07,6.40
2013,09,26,09,08,6.50
2013,09,26,09,09,6.60
2013,09,26,09,10,6.60
2013,09,26,09,11,6.60
2013,09,26,09,12,6.70
2013,09,26,09,13,6.70
2013,09,26,09,14,6.80
2013,09,26,09,15,6.80
2013,09,26,09,16,6.80
2013,09,26,09,17,6.90
2013,09,26,09,18,6.90
2013,09,26,09,19,7.00
2013,09,26,09,20,7.00
2013,09,26,09,21,7.10
2013,09,26,09,22,7.10
2013,09,26,09,23,7.10
2013,09,26,09,24,7.20
2013,09,26,09,25,7.20
2013,09,26,09,26,7.30
2013,09,26,09,27,7.30
2013,09,26,09,28,7.30
2013,09,26,09,29,7.40
2013,09,26,09,30,7.40
2013,09,26,09,31,7.50
2013,09,26,09,32,7.50
2013,09,26,09,33,7.60
2013,09,26,09,34,7.60
2013,09,26,09,35,7.60
2013,09,26,09,36,7.60
2013,09,26,09,37,7.60
2013,09,26,09,38,7.70
2013,09,26,09,39,7.70
2013,09,26,09,40,7.70
2013,09,26,09,41,7.80
2013,09,26,09,42,7.80
2013,09,26,09,43,7.90
2013,09,26,09,44,7.90
2013,09,26,09,45,8.00
2013,09,26,09,46,8.10
2013,09,26,09,47,8.10
2013,09,26,09,48,8.20
2013,09,26,09,49,8.30
2013,09,26,09,50,8.30
2013,09,26,09,51,8.40
2013,09,26,09,52,8.40
2013,09,26,09,53,8.50
2013,09,26,09,54,8.50
2013,09,26,09,55,8.60
2013,09,26,09,56,8.60
2013,09,26,09,57,8.70
2013,09,26,09,58,8.70
2013,09,26,09,59,8.80
2013,09,26,10,00,8.80
2013,09,26,10,01,8.90
2013,09,26,10,02,8.90
2013,09,26,10,03,9.00
2013,09,26,10,04,9.10
2013,09,26,10,05,9.20
2013,09,26,10,06,9.30
2013,09,26,10,07,9.30
2013,09,26,10,08,9.30
2013,09,26,10,09,9.40
2013,09,26,10,10,9.50
2013,09,26,10,11,9.60
2013,09,26,10,12,9.60
2013,09,26,10,13,9.70
2013,09,26,10,14,9.80
2013,09,26,10,15,9.90
2013,09,26,10,16,10.00
2013,09,26,10,17,10.10
2013,09,26,10,18,10.20
2013,09,26,10,19,10.30
2013,09,26,10,20,10.30
2013,09,26,10,21,10.40
2013,09,26,10,22,10.50
2013,09,26,10,23,10.60
2013,09,26,10,24,10.60
2013,09,26,10,25,10.70
2013,09,26,10,26,10.80
2013,09,26,10,27,10.80
2013,09,26,10,28,10.90
2013,09,26,10,29,11.00
2013,09,26,10,30,11.10
2013,09,26,10,31,11.10
2013,09,26,10,32,11.20
2013,09,26,10,33,11.20
2013,09,26,10,34,11.30
2013,09,26,10,35,11.30
2013,09,26,10,36,11.40
2013,09,26,10,37,11.50
2013,09,26,10,38,11.60
2013,09,26,10,39,11.60
2013,09,26,10,40,11.70
2013,09,26,10,41,11.70
2013,09,26,10,42,11.70
2013,09,26,10,43,11.80
2013,09,26,10,44,11.90
2013,09,26,10,45,11.90
2013,09,26,10,46,12.00
2013,09,26,10,47,12.10
2013,09,26,10,48,12.10
2013,09,26,10,49,12.10
2013,09,26,10,50,12.20
2013,09,26,10,51,12.30
2013,09,26,10,52,12.30
2013,09,26,10,53,12.40
2013,09,26,10,54,12.50
2013,09,26,10,55,12.60
2013,09,26,10,56,12.70
2013,09,26,10,57,12.80
2013,09,26,10,58,12.90
2013,09,26,10,59,13.00
2013,09,26,11,00,13.10
2013,09,26,11,01,13.10
2013,09,26,11,02,13.20
2013,09,26,11,03,13.30
2013,09,26,11,04,13.30
2013,09,26,11,05,13.40
2013,09,26,11,06,13.40
2013,09,26,11,07,13.40
2013,09,26,11,08,13.50
2013,09,26,11,09,13.50
2013,09,26,11,10,13.50
2013,09,26,11,11,13.60
2013,09,26,11,12,13.60
2013,09,26,11,13,13.50
2013,09,26,11,14,13.50
2013,09,26,11,15,13.50
2013,09,26,11,16,13.50
2013,09,26,11,17,13.50
2013,09,26,11,18,13.60
2013,09,26,11,19,13.60
2013,09,26,11,20,13.70
2013,09,26,11,21,13.80
2013,09,26,11,22,13.80
2013,09,26,11,23,13.80
2013,09,26,11,24,13.80
2013,09,26,11,25,13.80
2013,09,26,11,26,13.80
2013,09,26,11,27,13.90
2013,09,26,11,28,13.90
2013,09,26,11,29,13.90
2013,09,26,11,30,13.90
2013,09,26,11,31,14.00
2013,09,26,11,32,14.00
2013,09,26,11,33,13.90
2013,09,26,11,34,13.90
2013,09,26,11,35,13.90
2013,09,26,11,36,13.90
2013,09,26,11,37,13.80
2013,09,26,11,38,13.80
2013,09,26,11,39,13.80
2013,09,26,11,40,13.80
2013,09,26,11,41,13.80
2013,09,26,11,42,13.80
2013,09,26,11,43,13.80
2013,09,26,11,44,13.90
2013,09,26,11,45,13.90
2013,09,26,11,46,14.00
2013,09,26,11,47,14.20
2013,09,26,11,48,14.30
2013,09,26,11,49,14.40
2013,09,26,11,50,14.50
2013,09,26,11,51,14.60
2013,09,26,11,52,14.70
2013,09,26,11,53,14.70
2013,09,26,11,54,14.70
2013,09,26,11,55,14.70
2013,09,26,11,56,14.70
2013,09,26,11,57,14.80
2013,09,26,11,58,14.70
2013,09,26,11,59,14.70
2013,09,26,12,00,14.70
2013,09,26,12,01,14.60
2013,09,26,12,02,14.70
2013,09,26,12,03,14.70
2013,09,26,12,04,14.80
2013,09,26,12,05,14.80
2013,09,26,12,06,14.80
2013,09,26,12,07,14.80
2013,09,26,12,08,14.90
2013,09,26,12,09,14.90
2013,09,26,12,10,14.80
2013,09,26,12,11,14.80
2013,09,26,12,12,14.80
2013,09,26,12,13,14.80
2013,09,26,12,14,14.80
2013,09,26,12,15,14.80
2013,09,26,12,16,14.80
2013,09,26,12,17,14.80
2013,09,26,12,18,14.80
2013,09,26,12,19,14.90
2013,09,26,12,20,14.90
2013,09,26,12,21,14.90
2013,09,26,12,22,14.90
2013,09,26,12,23,15.00
2013,09,26,12,24,15.10
2013,09,26,12,25,15.10
2013,09,26,12,26,15.10
2013,09,26,12,27,15.10
2013,09,26,12,28,15.10
2013,09,26,12,29,15.20
2013,09,26,12,30,15.20
2013,09,26,12,31,15.30
2013,09,26,12,32,15.30
2013,09,26,12,33,15.30
2013,09,26,12,34,15.30
2013,09,26,12,35,15.40
2013,09,26,12,36,15.40
2013,09,26,12,37,15.40
2013,09,26,12,38,15.30
2013,09,26,12,39,15.40
2013,09,26,12,40,15.40
2013,09,26,12,41,15.40
2013,09,26,12,42,15.40
2013,09,26,12,43,15.40
2013,09,26,12,44,15.40
2013,09,26,12,45,15.40
2013,09,26,12,46,15.30
2013,09,26,12,47,15.30
2013,09,26,12,48,15.20
2013,09,26,12,49,15.20
2013,09,26,12,50,15.20
2013,09,26,12,51,15.20
2013,09,26,12,52,15.20
2013,09,26,12,53,15.20
2013,09,26,12,54,15.20
2013,09,26,12,55,15.20
2013,09,26,12,56,15.20
2013,09,26,12,57,15.20
2013,09,26,12,58,15.20
2013,09,26,12,59,15.10
2013,09,26,13,00,15.10
2013,09,26,13,01,15.10
2013,09,26,13,02,15.10
2013,09,26,13,03,15.10
2013,09,26,13,04,15.10
2013,09,26,13,05,15.00
2013,09,26,13,06,15.00
2013,09,26,13,07,15.00
2013,09,26,13,08,15.10
2013,09,26,13,09,15.10
2013,09,26,13,10,15.00
2013,09,26,13,11,14.90
2013,09,26,13,12,14.90
2013,09,26,13,13,14.90
2013,09,26,13,14,14.90
2013,09,26,13,15,15.00
2013,09,26,13,16,15.00
2013,09,26,13,17,15.00
2013,09,26,13,18,15.00
2013,09,26,13,19,15.00
2013,09,26,13,20,15.00
2013,09,26,13,21,15.00
2013,09,26,13,22,15.10
2013,09,26,13,23,15.20
2013,09,26,13,24,15.20
2013,09,26,13,25,15.20
2013,09,26,13,26,15.20
2013,09,26,13,27,15.20
2013,09,26,13,28,15.20
2013,09,26,13,29,15.20
2013,09,26,13,30,15.20
2013,09,26,13,31,15.20
2013,09,26,13,32,15.20
2013,09,26,13,33,15.30
2013,09,26,13,34,15.30
2013,09,26,13,35,15.40
2013,09,26,13,36,15.40
2013,09,26,13,37,15.40
2013,09,26,13,38,15.50
2013,09,26,13,39,15.60
2013,09,26,13,40,15.60
2013,09,26,13,41,15.60
2013,09,26,13,42,15.60
2013,09,26,13,43,15.60
2013,09,26,13,44,15.60
2013,09,26,13,45,15.60
2013,09,26,13,46,15.60
2013,09,26,13,47,15.70
2013,09,26,13,48,15.70
2013,09,26,13,49,15.70
2013,09,26,13,50,15.70
2013,09,26,13,51,15.60
2013,09,26,13,52,15.50
2013,09,26,13,53,15.40
2013,09,26,13,54,15.30
2013,09,26,13,55,15.30
2013,09,26,13,56,15.30
2013,09,26,13,57,15.30
2013,09,26,13,58,15.30
2013,09,26,13,59,15.20
2013,09,26,14,00,15.10
2013,09,26,14,01,15.10
2013,09,26,14,02,15.10
2013,09,26,14,03,15.00
2013,09,26,14,04,15.00
2013,09,26,14,05,14.90
2013,09,26,14,06,14.90
2013,09,26,14,07,14.90
2013,09,26,14,08,14.90
2013,09,26,14,09,14.90
2013,09,26,14,10,14.90
2013,09,26,14,11,14.90
2013,09,26,14,12,15.00
2013,09,26,14,13,15.10
2013,09,26,14,14,15.10
2013,09,26,14,15,15.20
2013,09,26,14,16,15.20
2013,09,26,14,17,15.20
2013,09,26,14,18,15.10
2013,09,26,14,19,15.10
2013,09,26,14,20,15.20
2013,09,26,14,21,15.20
2013,09,26,14,22,15.30
2013,09,26,14,23,15.30
2013,09,26,14,24,15.40
2013,09,26,14,25,15.40
2013,09,26,14,26,15.40
2013,09,26,14,27,15.40
2013,09,26,14,28,15.40
2013,09,26,14,29,15.40
2013,09,26,14,30,15.30
2013,09,26,14,31,15.30
2013,09,26,14,32,15.30
2013,09,26,14,33,15.30
2013,09,26,14,34,15.30
2013,09,26,14,35,15.30
2013,09,26,14,36,15.30
2013,09,26,14,37,15.30
2013,09,26,14,38,15.30
2013,09,26,14,39,15.30
2013,09,26,14,40,15.30
2013,09,26,14,41,15.30
2013,09,26,14,42,15.40
2013,09,26,14,43,15.40
2013,09,26,14,44,15.40
2013,09,26,14,45,15.40
2013,09,26,14,46,15.40
2013,09,26,14,47,15.40
2013,09,26,14,48,15.40
2013,09,26,14,49,15.40
2013,09,26,14,50,15.30
2013,09,26,14,51,15.30
2013,09,26,14,52,15.30
2013,09,26,14,53,15.30
2013,09,26,14,54,15.30
2013,09,26,14,55,15.30
2013,09,26,14,56,15.40
2013,09,26,14,57,15.50
2013,09,26,14,58,15.70
2013,09,26,14,59,15.80
2013,09,26,15,00,15.80
2013,09,26,15,01,15.90
2013,09,26,15,02,15.90
2013,09,26,15,03,15.90
2013,09,26,15,04,15.90
2013,09,26,15,05,15.90
2013,09,26,15,06,15.90
2013,09,26,15,07,15.90
2013,09,26,15,08,15.80
2013,09,26,15,09,15.80
2013,09,26,15,10,15.80
2013,09,26,15,11,15.80
2013,09,26,15,12,15.90
2013,09,26,15,13,15.90
2013,09,26,15,14,15.80
2013,09,26,15,15,15.80
2013,09,26,15,16,15.80
2013,09,26,15,17,15.70
2013,09,26,15,18,15.70
2013,09,26,15,19,15.80
2013,09,26,15,20,15.80
2013,09,26,15,21,15.70
2013,09,26,15,22,15.70
2013,09,26,15,23,15.70
2013,09,26,15,24,15.70
2013,09,26,15,25,15.70
2013,09,26,15,26,15.80
2013,09,26,15,27,15.80
2013,09,26,15,28,15.80
2013,09,26,15,29,15.80
2013,09,26,15,30,15.80
2013,09,26,15,31,15.80
2013,09,26,15,32,15.80
2013,09,26,15,33,15.80
2013,09,26,15,34,15.80
2013,09,26,15,35,15.80
2013,09,26,15,36,15.80
2013,09,26,15,37,15.70
2013,09,26,15,38,15.70
2013,09,26,15,39,15.70
2013,09,26,15,40,15.80
2013,09,26,15,41,15.80
2013,09,26,15,42,15.90
2013,09,26,15,43,15.90
2013,09,26,15,44,16.00
2013,09,26,15,45,16.00
2013,09,26,15,46,16.00
2013,09,26,15,47,16.00
2013,09,26,15,48,16.00
2013,09,26,15,49,16.00
2013,09,26,15,50,16.00
2013,09,26,15,51,16.00
2013,09,26,15,52,16.00
2013,09,26,15,53,15.90
2013,09,26,15,54,15.90
2013,09,26,15,55,15.90
2013,09,26,15,56,15.80
2013,09,26,15,57,15.80
2013,09,26,15,58,15.70
2013,09,26,15,59,15.70
2013,09,26,16,00,15.60
2013,09,26,16,01,15.60
2013,09,26,16,02,15.50
2013,09,26,16,03,15.50
2013,09,26,16,04,15.40
2013,09,26,16,05,15.40
2013,09,26,16,06,15.40
2013,09,26,16,07,15.50
2013,09,26,16,08,15.50
2013,09,26,16,09,15.50
2013,09,26,16,10,15.60
2013,09,26,16,11,15.60
2013,09,26,16,12,15.70
2013,09,26,16,13,15.70
2013,09,26,16,14,15.70
2013,09,26,16,15,15.70
2013,09,26,16,16,15.70
2013,09,26,16,17,15.80
2013,09,26,16,18,15.80
2013,09,26,16,19,15.90
2013,09,26,16,20,15.90
2013,09,26,16,21,15.90
2013,09,26,16,22,15.90
2013,09,26,16,23,15.80
2013,09,26,16,24,15.80
2013,09,26,16,25,15.80
2013,09,26,16,26,15.80
2013,09,26,16,27,15.70
2013,09,26,16,28,15.70
2013,09,26,16,29,15.70
2013,09,26,16,30,15.70
2013,09,26,16,31,15.80
2013,09,26,16,32,15.80
2013,09,26,16,33,15.80
2013,09,26,16,34,15.70
2013,09,26,16,35,15.70
2013,09,26,16,36,15.70
2013,09,26,16,37,15.70
2013,09,26,16,38,15.70
2013,09,26,16,39,15.70
2013,09,26,16,40,15.70
2013,09,26,16,41,15.70
2013,09,26,16,42,15.60
2013,09,26,16,43,15.60
2013,09,26,16,44,15.60
2013,09,26,16,45,15.60
2013,09,26,16,46,15.60
2013,09,26,16,47,15.60
2013,09,26,16,48,15.60
2013,09,26,16,49,15.50
2013,09,26,16,50,15.50
2013,09,26,16,51,15.40
2013,09,26,16,52,15.40
2013,09,26,16,53,15.40
2013,09,26,16,54,15.40
2013,09,26,16,55,15.40
2013,09,26,16,56,15.50
2013,09,26,16,57,15.50
2013,09,26,16,58,15.60
2013,09,26,16,59,15.60
2013,09,26,17,00,15.70
2013,09,26,17,01,15.70
2013,09,26,17,02,15.80
2013,09,26,17,03,15.80
2013,09,26,17,04,15.80
2013,09,26,17,05,15.80
2013,09,26,17,06,15.80
2013,09,26,17,07,15.80
2013,09,26,17,08,15.80
2013,09,26,17,09,15.80
2013,09,26,17,10,15.90
2013,09,26,17,11,16.00
2013,09,26,17,12,16.00
2013,09,26,17,13,16.10
2013,09,26,17,14,16.10
2013,09,26,17,15,16.10
2013,09,26,17,16,16.10
2013,09,26,17,17,16.10
2013,09,26,17,18,16.20
2013,09,26,17,19,16.20
2013,09,26,17,20,16.20
2013,09,26,17,21,16.20
2013,09,26,17,22,16.20
2013,09,26,17,23,16.30
2013,09,26,17,24,16.40
2013,09,26,17,25,16.40
2013,09,26,17,26,16.50
2013,09,26,17,27,16.60
2013,09,26,17,28,16.60
2013,09,26,17,29,16.70
2013,09,26,17,30,16.70
2013,09,26,17,31,16.80
2013,09,26,17,32,16.80
2013,09,26,17,33,16.80
2013,09,26,17,34,16.90
2013,09,26,17,35,16.90
2013,09,26,17,36,16.90
2013,09,26,17,37,16.90
2013,09,26,17,38,16.90
2013,09,26,17,39,16.80
2013,09,26,17,40,16.80
2013,09,26,17,41,16.70
2013,09,26,17,42,16.70
2013,09,26,17,43,16.50
2013,09,26,17,44,16.40
2013,09,26,17,45,16.20
2013,09,26,17,46,16.00
2013,09,26,17,47,15.80
2013,09,26,17,48,15.80
2013,09,26,17,49,15.70
2013,09,26,17,50,15.70